Change the Weather History Date:

Wednesday, August 21, 2013

  Actual Average (PACD) Record (PACD)
Temperature  
Mean Temperature 52 °F 52 °F  
Max Temperature 54 °F 57 °F 65 °F (1953)
Min Temperature 50 °F 48 °F 36 °F (1946)
Degree Days  
Heating Degree Days 12 13  
Month to date heating degree days 273  
Since 1 June heating degree days 1273  
Since 1 July heating degree days 711  
Cooling Degree Days 0    
Month to date cooling degree days  
Year to date cooling degree days  
Since 1 June cooling degree days  
Growing Degree Days 2 (Base 50)    
Moisture  
Dew Point 51 °F    
Average Humidity 93    
Maximum Humidity 100    
Minimum Humidity 86    
Precipitation  
Precipitation 0.06 in 0.11 in 0.75 in (1954)
Month to date precipitation 2.35  
Year to date precipitation 21.41  
Snow  
Snow 0.00 in 0.00 in 0.00 in (2014)
Month to date snowfall 0.0  
Since 1 June snowfall 0.0  
Since 1 July snowfall 0.0  
Snow Depth -    
Sea Level Pressure  
Sea Level Pressure 30.15 in    
Wind  
Wind Speed 4 mph (East)    
Max Wind Speed 13 mph    
Max Gust Speed -    
Visibility 8 miles    
Events Rain    
T = Trace of Precipitation, MM = Missing Value Source: NWS Daily Summary

Daily Weather History Graph

Daily Weather History Graph

Search for Another Location

Airport or City:

Trip Planner

Search our weather history database for the weather conditions in past years. The results will help you decide how hot, cold, wet, or windy it might be!

Date:

Astronomy

Aug. 21, 2013 Rise Set
Actual Time 6:40 AM HADT 9:11 PM HADT
Civil Twilight 6:00 AM HADT 9:51 PM HADT
Nautical Twilight 5:08 AM HADT 10:42 PM HADT
Astronomical Twilight 4:04 AM HADT 11:45 PM HADT
Moon 9:02 PM HADT (8/21) 7:53 AM HADT (8/21)
Length of Visible Light 15h 50m
Length of Day
14h 30m
Full, 99% of the Moon is Illuminated
Aug 21
Full
Aug 28
Last Quarter
Sep 5
New
Sep 12
First Quarter
Sep 19
Full

Hourly Weather History & Observations

Time (HADT) Temp. Dew Point Humidity Pressure Visibility Wind Dir Wind Speed Gust Speed Precip Events Conditions
12:01 AM 53.1 °F 50.0 °F 89% 30.35 in 10.0 mi East 3.5 mph - N/A   Overcast
1:01 AM 53.1 °F 50.0 °F 89% 30.34 in 10.0 mi ENE 6.9 mph - N/A   Overcast
1:15 AM 53.6 °F 50.0 °F 88% 30.06 in 10.0 mi Calm Calm - N/A   Overcast
2:01 AM 54.0 °F 50.0 °F 86% 30.34 in 10.0 mi East 4.6 mph - N/A   Overcast
3:01 AM 52.0 °F 48.9 °F 89% 30.34 in 10.0 mi Calm Calm - N/A   Overcast
3:24 AM 51.8 °F 50.0 °F 94% 30.06 in 10.0 mi North - - N/A   Overcast
3:35 AM 51.8 °F 50.0 °F 94% 30.05 in 10.0 mi Calm Calm - N/A   Overcast
4:01 AM 52.0 °F 50.0 °F 93% 30.33 in 10.0 mi Variable 3.5 mph - N/A   Overcast
4:09 AM 51.8 °F 50.0 °F 94% 30.05 in 10.0 mi Variable 4.6 mph - N/A   Overcast
4:34 AM 51.8 °F 50.0 °F 94% 30.05 in 10.0 mi North - - N/A   Overcast
5:01 AM 51.1 °F 50.0 °F 96% 30.34 in 10.0 mi Calm Calm - N/A   Overcast
5:40 AM 51.8 °F 48.2 °F 88% 30.05 in 10.0 mi Calm Calm - N/A   Overcast
6:01 AM 51.1 °F 48.9 °F 92% 30.33 in 10.0 mi NNW 3.5 mph - N/A   Overcast
6:33 AM 50.0 °F 48.2 °F 94% 30.04 in 10.0 mi Calm Calm - N/A   Overcast
6:52 AM 50.0 °F 48.2 °F 94% 30.04 in 10.0 mi Calm Calm - N/A   Overcast
7:01 AM 50.0 °F 48.9 °F 96% 30.32 in 9.0 mi Calm Calm - N/A   Overcast
8:01 AM 51.1 °F 48.9 °F 92% 30.32 in 8.0 mi Calm Calm - N/A   Overcast
8:32 AM 51.8 °F 48.2 °F 88% 30.04 in 6.0 mi Calm Calm - N/A   Overcast
8:44 AM 51.8 °F 50.0 °F 94% 30.04 in 8.0 mi Calm Calm - N/A   Unknown
9:01 AM 51.1 °F 50.0 °F 96% 30.32 in 6.0 mi Calm Calm - N/A   Mist
9:15 AM 51.8 °F 50.0 °F 94% 30.04 in 9.0 mi Calm Calm - N/A   Overcast
10:01 AM 54.0 °F 51.1 °F 90% 30.30 in 10.0 mi Variable 3.5 mph - N/A   Overcast
10:26 AM 53.6 °F 51.8 °F 94% 30.02 in 10.0 mi Calm Calm - N/A   Mostly Cloudy
11:01 AM 54.0 °F 52.0 °F 93% 30.30 in 10.0 mi East 6.9 mph - 0.00 in Rain Light Rain
12:01 PM 53.6 °F 51.8 °F 94% 30.00 in 10.0 mi East 10.4 mph - 0.00 in   Overcast
1:01 PM 55.0 °F 52.0 °F 89% 30.28 in 10.0 mi East 9.2 mph - 0.00 in   Overcast
2:01 PM 54.0 °F 51.1 °F 90% 30.27 in 10.0 mi East 12.7 mph - N/A   Overcast
2:13 PM 53.6 °F 51.8 °F 94% 29.98 in 10.0 mi East 11.5 mph - N/A   Overcast
3:01 PM 55.4 °F 51.8 °F 88% 29.98 in 7.0 mi East 8.1 mph - 0.00 in Rain Light Rain
3:11 PM 53.6 °F 51.8 °F 94% 29.98 in 9.0 mi East 9.2 mph - 0.00 in Rain Light Rain
3:47 PM 53.6 °F 51.8 °F 94% 29.98 in 5.0 mi East 9.2 mph - 0.00 in Rain Light Rain
4:01 PM 54.0 °F 52.0 °F 93% 30.26 in 7.0 mi East 8.1 mph - 0.00 in Rain Light Rain
5:01 PM 53.1 °F 51.1 °F 93% 30.25 in 5.0 mi East 5.8 mph - 0.00 in Rain Light Rain
5:29 PM 53.6 °F 51.8 °F 94% 29.96 in 2.5 mi North - - 0.02 in Rain Light Rain
5:38 PM 53.6 °F 53.6 °F 100% 29.96 in 5.0 mi East 4.6 mph - 0.02 in Rain Light Rain
6:01 PM 54.0 °F 53.1 °F 97% 30.23 in 6.0 mi North - - 0.03 in Rain Light Rain
6:21 PM 53.6 °F 53.6 °F 100% 29.96 in 2.5 mi Calm Calm - 0.01 in Rain Light Rain
6:52 PM 53.6 °F 53.6 °F 100% 29.95 in 3.0 mi North - - 0.01 in Rain Light Rain
7:01 PM 53.6 °F 53.6 °F 100% 29.94 in 5.0 mi ENE 5.8 mph - 0.01 in Rain Light Rain
8:01 PM 53.1 °F 52.0 °F 96% 30.22 in 9.0 mi East 12.7 mph - 0.01 in   Overcast
9:01 PM 55.9 °F 54.0 °F 93% 30.23 in 10.0 mi North - - N/A   Overcast
10:01 PM 53.1 °F 52.0 °F 96% 30.24 in 10.0 mi East 4.6 mph - 0.00 in Rain Light Rain
11:01 PM 54.0 °F 53.1 °F 97% 30.23 in 10.0 mi Calm Calm - 0.02 in   Overcast